Volver al catálogo

M-SEL

ActivoMilitarSSO
NORAD 63231·PAYLOAD·🇺🇸 United States

Lanzado Mar 15, 2025 desde Vandenberg Space Force Base

Loading…

Próximos Pases (próximas 24 horas)

TLE

ActualizadoSource: Space-Track

Época: Sep 13, 2026, 16:19 UTC

1 63231U 25052X   26256.68004440  .00006555  00000-0  24738-3 0  9994
2 63231  97.3778 149.2598 0004490 174.0637 186.0656 15.27356276 83424

Sigue M-SEL en tiempo real con AllMySat

Download on the App Store